Location: ????? ??????
(37.8317°N, 23.8750°E)
Time: 13:32:03
(UTC+00:00)

Meteor 1-11 - Pass Details

Date: 20 January 2021
Orbit: 840 x 887 km, 81.2° (Epoch: 03 March)

Event Time Altitude Azimuth Distance (km) Brightness Sun altitude
Rises 18:02:55 0° 194° (SSW) 3,459 7.6 -29.0°
Reaches altitude 10° 18:05:22 10° 196° (SSW) 2,518 6.9 -29.5°
Maximum altitude 18:11:04 70° 280° (W) 923 4.4 -30.6°
Enters shadow 18:11:12 70° 290° (WNW) 924 4.4 -30.7°
